User: anonymous   Login
Location: Unspecified
(0.0000°N, 0.0000°E)
Time: 09:27:18
(UTC+00:00)
Language:

Geos 2 (Explorer 36) - Orbit

View from above orbital plane
View from above orbital plane
View from above satellite
View from above satellite

Ground track
Ground track

The orbit data is extracted from the following two-line orbital elements,

1  3093U 68002A   19345.82651390 -.00000056 +00000-0 +67547-4 0  9992
2  3093 105.7997 325.4263 0318967 007.0851 050.8013 12.83532928432060
Epoch (UTC): 11 December 2019 19:50:10
Eccentricity: 0.0318967
inclination: 105.7997°
perigee height: 1081 km
apogee height: 1573 km
right ascension of ascending node: 325.4263°
argument of perigee: 7.0851°
revolutions per day: 12.83532928
mean anomaly at epoch: 50.8013°
orbit number at epoch: 43206

The dashed part of the orbit path shows where the satellite is in the earth's shadow,  

DLR